Willimantic, CT

6:27 AM EST on December 18, 2017 (GMT -0500)
Windham

Weather History for KIJD - April, 2013

Change the Weather History Date:

Saturday, April 6, 2013

  Actual Average Record
Temperature  
Mean Temperature 40 °F -  
Max Temperature 48 °F 54 °F 76 °F (1985)
Min Temperature 30 °F 32 °F 17 °F (1964)
Degree Days  
Heating Degree Days 25    
Moisture  
Dew Point 12 °F    
Average Humidity 37    
Maximum Humidity 62    
Minimum Humidity 16    
Precipitation  
Precipitation 0.00 in - - ()
Sea Level Pressure  
Sea Level Pressure 30.19 in    
Wind  
Wind Speed 8 mph (NW)    
Max Wind Speed 20 mph    
Max Gust Speed 29 mph    
Visibility 10 miles    
Events      
Averages and records for this station are not official NWS values.
T = Trace of Precipitation, MM = Missing Value Source: NWS Daily Summary

Daily Weather History Graph

Daily Weather History Graph

Search for Another Location

Airport or City:

Trip Planner

Search our weather history database for the weather conditions in past years. The results will help you decide how hot, cold, wet, or windy it might be!

Date:

Astronomy

Apr. 06, 2013 Rise Set
Actual Time 6:22 AM EDT 7:19 PM EDT
Civil Twilight 5:54 AM EDT 7:48 PM EDT
Nautical Twilight 5:20 AM EDT 8:22 PM EDT
Astronomical Twilight 4:45 AM EDT 8:57 PM EDT
Moon 4:08 AM EDT (4/6) 3:42 PM EDT (4/6)
Length of Visible Light 13h 53m
Length of Day
12h 57m
Waning Crescent, 15% of the Moon is Illuminated
Apr 6
Waning Crescent
Apr 10
New
Apr 18
First Quarter
Apr 25
Full
May 2
Last Quarter

Hourly Weather History & Observations

Time (EDT) Temp. Windchill Dew Point Humidity Pressure Visibility Wind Dir Wind Speed Gust Speed Precip Events Conditions
12:52 AM 37.9 °F 31.5 °F 25.0 °F 60% 29.94 in 10.0 mi WNW 9.2 mph - N/A   Clear
1:52 AM 37.0 °F 31.6 °F 24.1 °F 59% 29.96 in 10.0 mi Variable 6.9 mph - N/A   Clear
2:52 AM 36.0 °F 31.1 °F 24.1 °F 62% 29.99 in 10.0 mi WNW 5.8 mph - N/A   Clear
3:52 AM 36.0 °F 30.3 °F 23.0 °F 59% 30.01 in 10.0 mi Variable 6.9 mph - N/A   Mostly Cloudy
4:52 AM 36.0 °F 29.6 °F 19.9 °F 52% 30.06 in 10.0 mi NNW 8.1 mph - N/A   Scattered Clouds
5:52 AM 34.0 °F 25.5 °F 12.0 °F 40% 30.09 in 10.0 mi NNW 11.5 mph 17.3 mph N/A   Clear
6:52 AM 33.1 °F 23.4 °F 10.0 °F 38% 30.14 in 10.0 mi NNW 13.8 mph 24.2 mph N/A   Clear
7:52 AM 33.1 °F 21.5 °F 6.1 °F 32% 30.18 in 10.0 mi NW 19.6 mph 28.8 mph N/A   Clear
9:52 AM 37.0 °F 28.5 °F 5.0 °F 26% 30.22 in 10.0 mi North 13.8 mph 25.3 mph N/A   Clear
10:52 AM 39.0 °F 31.0 °F 5.0 °F 24% 30.24 in 10.0 mi NNE 13.8 mph 23.0 mph N/A   Clear
11:52 AM 39.9 °F 34.5 °F 3.9 °F 22% 30.25 in 10.0 mi North 8.1 mph 19.6 mph N/A   Clear
12:52 PM 42.1 °F 35.7 °F 7.0 °F 24% 30.25 in 10.0 mi NW 11.5 mph 17.3 mph N/A   Clear
1:52 PM 43.0 °F 41.3 °F 6.1 °F 22% 30.24 in 10.0 mi Variable 3.5 mph - N/A   Clear
2:52 PM 46.0 °F 41.9 °F 6.1 °F 20% 30.24 in 10.0 mi NW 8.1 mph 19.6 mph N/A   Clear
3:52 PM 46.0 °F 40.2 °F 6.1 °F 20% 30.23 in 10.0 mi NW 12.7 mph 18.4 mph N/A   Clear
4:52 PM 46.9 °F - 5.0 °F 18% 30.24 in 10.0 mi Variable 5.8 mph - N/A   Clear
5:52 PM 48.0 °F - 3.9 °F 16% 30.26 in 10.0 mi NW 8.1 mph - N/A   Clear
6:52 PM 46.0 °F 44.8 °F 3.0 °F 17% 30.28 in 10.0 mi West 3.5 mph - N/A   Clear
7:52 PM 42.1 °F - 7.0 °F 24% 30.30 in 10.0 mi Calm Calm - N/A   Clear
8:52 PM 35.1 °F - 18.0 °F 50% 30.32 in 10.0 mi Calm Calm - N/A   Clear
9:52 PM 33.1 °F - 17.1 °F 52% 30.34 in 10.0 mi Calm Calm - N/A   Clear
10:52 PM 32.0 °F - 15.1 °F 50% 30.33 in 10.0 mi Calm Calm - N/A   Clear
11:52 PM 30.0 °F - 18.0 °F 61% 30.34 in 10.0 mi Calm Calm - N/A   Clear